Location: Volkssternwarte_EN
(51.3230°N, 7.4010°E)
Time: 06:16:07
(UTC+01:00)

BlueWalker 3 - Pass Details

Date: 03 December 2022
Orbit: 499 x 517 km, 53.2° (Epoch: 28 January)

Event Time Altitude Azimuth Distance (km) Brightness Sun altitude
Rises 18:13:40 0° 277° (W) 2,632 6.9 -16.1°
Reaches altitude 10° 18:15:54 10° 280° (W) 1,741 5.7 -16.5°
Maximum altitude 18:19:49 65° 3° (N) 565 2.0 -17.1°
Enters shadow 18:21:02 40° 70° (ENE) 764 2.3 -17.2°
